Flag for Mozambique Weather past 2 weeks in Beira, Mozambique

Now
70 °F

Passing clouds.


Feels Like: 70 °F
Forecast: 73 / 80 °F
Wind: No wind

Location: Beira Airport

Current Time: Oct 25, 2014 at 5:07:06 AM

Latest Report: Oct 25, 2014 at 4:00 AM


Visibility: 5 mi

Pressure: 29.92 "Hg

Humidity: 88%

Dew point: 66 °F

Location of BeiraLocation

Historic Weather in Beira — Graph

°F

Beira temperature yesterday

Maximum temperature yesterday: 82 °F (at 12:00 PM)
Minimum temperature yesterday: 68 °F (at 2:00 AM)
Average temperature yesterday: 78 °F

Past Weeks' High & Low Weather Summary

 TemperatureHumidityPressure
High95 °F (Oct 17, 1:00 PM)94% (Oct 10, 6:00 AM)30.12 "Hg (Oct 10, 6:00 AM)
Low64 °F (Oct 19, 4:00 AM)37% (Oct 19, 11:00 AM)29.59 "Hg (Oct 17, 1:00 PM)
Average77 °F77%29.95 "Hg
* Reported Oct 10 6:00 AM — Oct 25 4:00 AM, Beira, Weather by CustomWeather, © 2014

Note: Actual official high and low records may vary slightly from our data, if they occured in-between our weather recording intervals... More about our weather records

Advertising

Beira weather history for previous 24 hours

 ConditionsComfort  
Time TempWeatherWind HumidityBarometerVisibility
4:00 AM
Oct 25
70 °FPassing clouds.No wind88%29.92 "Hg5 mi
2:00 AM73 °FClear.No wind83%29.92 "Hg10 mi
1:00 AM73 °FClear.3 mph83%29.92 "Hg10 mi
11:00 PM
Oct 24
75 °FClear.9 mph78%29.89 "Hg10 mi
10:00 PM75 °FClear.12 mph78%29.89 "Hg10 mi
9:00 PM77 °FClear.15 mph79%29.89 "Hg10 mi
8:00 PM77 °FClear.16 mph74%29.89 "Hg10 mi
6:00 PM79 °FClear.20 mph70%29.86 "Hg10 mi
4:00 PM82 °FSunny.22 mph62%29.83 "Hg10 mi
3:00 PM82 °FSunny.23 mph62%29.83 "Hg10 mi
2:00 PM82 °FPassing clouds.21 mph74%29.83 "HgN/A
1:00 PM82 °FPassing clouds.20 mph74%29.86 "HgN/A
12:00 PM82 °FScattered clouds.20 mph70%29.89 "HgN/A
11:00 AM81 °FScattered clouds.16 mph66%29.92 "HgN/A
10:00 AM81 °FScattered clouds.9 mph66%29.95 "HgN/A
9:00 AM81 °FScattered clouds.9 mph66%29.98 "HgN/A
8:00 AM77 °FPassing clouds.10 mph69%29.95 "HgN/A
7:00 AM68 °FPassing clouds.9 mph83%29.95 "HgN/A
5:00 AM68 °FPassing clouds.2 mph83%29.95 "Hg4 mi
Weather by CustomWeather, © 2014

See weather overviewHow to use our weather pages